| time (UTC) | temp F | wind direction | speed knots | gust knots | rain 1hr in | rain 24hr in | rain mn in | humidity % | barometer mb |
| 20260831091813 | 68 | 210 | 1.7 | 5.2 | 0.00 | 0.00 | 0.00 | 99 | 1010.7 |
| 20260831084813 | 68 | 236 | 1.7 | 6.1 | 0.01 | 0.00 | 0.00 | 97 | 1010.6 |
| 20260831081812 | 68 | 220 | 0.9 | 8.7 | 0.01 | 0.00 | 0.00 | 93 | 1010.9 |
| 20260831074812 | 68 | 270 | 0.9 | 10.4 | 0.00 | 0.00 | 0.00 | 93 | 1011.0 |
| 20260831071811 | 68 | 296 | 2.6 | 11.3 | 0.00 | 0.00 | 0.00 | 97 | 1010.8 |
| 20260831064811 | 68 | 283 | 0.9 | 6.1 | 0.00 | 0.00 | 0.00 | 99 | 1011.0 |
| 20260831061810 | 68 | 317 | 1.7 | 7.8 | 0.00 | 0.00 | 0.00 | 99 | 1012.6 |
| 20260831054810 | 68 | 324 | 1.7 | 8.7 | 0.00 | 0.00 | 0.00 | 99 | 1012.9 |
| 20260831051809 | 68 | 315 | 1.7 | 8.7 | 0.00 | 0.00 | 0.00 | 99 | 1013.1 |
| 20260831044809 | 68 | 317 | 1.7 | 8.7 | 0.00 | 0.00 | 0.00 | 99 | 1013.1 |
| 20260831044012 | 68 | 320 | 2.6 | 8.7 | 0.00 | 0.00 | 0.00 | 100 | 1013.1 |
| 20260831043510 | 68 | 320 | 2.6 | 8.7 | 0.00 | 0.00 | 0.00 | 100 | 1013.1 |
| 20260831043435 | 68 | 320 | 2.6 | 8.7 | 0.00 | 0.00 | 0.00 | 100 | 1013.1 |
| 20260831043151 | 68 | 320 | 2.6 | 8.7 | 0.00 | 0.00 | 0.00 | 100 | 1013.1 |
| 20260831043048 | 68 | 320 | 2.6 | 8.7 | 0.00 | 0.00 | 0.00 | 100 | 1013.1 |
| 20260831042718 | 67 | 323 | 2.6 | 8.7 | 0.00 | 0.00 | 0.00 | 100 | 1013.0 |
| 20260831042555 | 67 | 323 | 2.6 | 8.7 | 0.00 | 0.00 | 0.00 | 100 | 1013.0 |
| 20260831041204 | 67 | 326 | 2.6 | 8.7 | 0.00 | 0.00 | 0.00 | 100 | 1013.0 |
| 20260831040409 | 67 | 326 | 2.6 | 8.7 | 0.00 | 0.00 | 0.00 | 100 | 1013.0 |
| 20260831035655 | 67 | 324 | 2.6 | 8.7 | 0.00 | 0.00 | 0.00 | 100 | 1013.0 |
| 20260831034511 | 67 | 324 | 2.6 | 8.7 | 0.00 | 0.00 | 0.00 | 100 | 1013.0 |
| 20260831031511 | 67 | 317 | 2.6 | 7.8 | 0.00 | 0.00 | 0.00 | 100 | 1013.2 |
| 20260831030756 | 67 | 313 | 2.6 | 7.8 | 0.00 | 0.00 | 0.00 | 100 | 1013.2 |
| 20260831030457 | 67 | 313 | 2.6 | 7.8 | 0.00 | 0.00 | 0.00 | 100 | 1013.2 |
| 20260831025550 | 67 | 304 | 1.7 | 7.8 | 0.00 | 0.00 | 0.00 | 100 | 1013.2 |
| 20260831025358 | 67 | 304 | 1.7 | 7.8 | 0.00 | 0.00 | 0.00 | 100 | 1013.2 |
| 20260831024951 | 67 | 304 | 1.7 | 7.8 | 0.00 | 0.00 | 0.00 | 100 | 1013.2 |
| 20260831023851 | 67 | 288 | 1.7 | 8.7 | 0.00 | 0.00 | 0.00 | 100 | 1013.1 |
| 20260831020850 | 68 | 266 | 1.7 | 8.7 | 0.00 | 0.00 | 0.00 | 100 | 1012.9 |
| 20260831020204 | 68 | 266 | 1.7 | 8.7 | 0.00 | 0.00 | 0.00 | 100 | 1012.9 |
| 20260831013203 | 68 | 6 | 0.9 | 10.4 | 0.00 | 0.00 | 0.00 | 99 | 1012.4 |
| 20260831011630 | 68 | 27 | 1.7 | 11.3 | 0.00 | 0.00 | 0.00 | 99 | 1012.2 |
| 20260831011052 | 69 | 28 | 2.6 | 11.3 | 0.00 | 0.00 | 0.00 | 98 | 1011.9 |
| 20260831010042 | 69 | 28 | 2.6 | 11.3 | 0.00 | 0.00 | 0.00 | 98 | 1011.9 |
| 20260831004712 | 69 | 24 | 2.6 | 11.3 | 0.00 | 0.00 | 0.00 | 98 | 1011.7 |
| 20260831003704 | 69 | 14 | 2.6 | 11.3 | 0.00 | 0.00 | 0.00 | 98 | 1011.4 |
| 20260831002230 | 69 | 2 | 2.6 | 11.3 | 0.00 | 0.00 | 0.00 | 98 | 1011.2 |
| 20260831001339 | 70 | 360 | 5.2 | 14.8 | 0.00 | 0.00 | 0.00 | 92 | 1011.0 |
| 20260831000641 | 70 | 360 | 5.2 | 14.8 | 0.00 | 0.00 | 0.00 | 92 | 1011.2 |
| 20260831000041 | 70 | 360 | 5.2 | 14.8 | 0.00 | 0.00 | 0.00 | 92 | 1011.2 |
| 20260830235534 | 70 | 358 | 5.2 | 14.8 | 0.00 | 0.00 | 0.00 | 91 | 1011.0 |
| 20260830234731 | 70 | 358 | 5.2 | 14.8 | 0.00 | 0.00 | 0.00 | 91 | 1011.0 |
| 20260830233408 | 70 | 355 | 4.3 | 14.8 | 0.00 | 0.00 | 0.00 | 91 | 1010.8 |
| 20260830231731 | 71 | 354 | 4.3 | 14.8 | 0.00 | 0.00 | 0.00 | 90 | 1010.6 |
| 20260830231539 | 71 | 354 | 4.3 | 14.8 | 0.00 | 0.00 | 0.00 | 90 | 1010.6 |
| 20260830224539 | 71 | 352 | 4.3 | 15.6 | 0.00 | 0.00 | 0.00 | 88 | 1010.1 |
| 20260830221538 | 72 | 354 | 5.2 | 16.5 | 0.00 | 0.00 | 0.00 | 86 | 1009.6 |
| 20260830214538 | 73 | 355 | 5.2 | 16.5 | 0.00 | 0.00 | 0.00 | 83 | 1009.3 |
| 20260830211537 | 74 | 356 | 6.1 | 16.5 | 0.00 | 0.00 | 0.00 | 82 | 1009.2 |
| 20260830204537 | 74 | 357 | 6.1 | 16.5 | 0.00 | 0.00 | 0.00 | 82 | 1009.3 |
| 20260830201536 | 74 | 358 | 5.2 | 16.5 | 0.00 | 0.00 | 0.00 | 83 | 1009.6 |
| 20260830194536 | 74 | 1 | 5.2 | 16.5 | 0.00 | 0.00 | 0.00 | 82 | 1009.8 |
| 20260830191535 | 75 | 358 | 5.2 | 18.2 | 0.00 | 0.00 | 0.00 | 82 | 1010.5 |
| 20260830184535 | 75 | 359 | 5.2 | 17.4 | 0.00 | 0.00 | 0.00 | 80 | 1011.1 |
| 20260830181534 | 74 | 7 | 3.5 | 14.8 | 0.00 | 0.00 | 0.00 | 84 | 1011.9 |
| 20260830180940 | 74 | 14 | 2.6 | 14.8 | 0.00 | 0.00 | 0.00 | 83 | 1012.3 |
| 20260830174944 | 74 | 25 | 2.6 | 14.8 | 0.00 | 0.00 | 0.00 | 81 | 1012.6 |
| 20260830171944 | 76 | 44 | 3.5 | 16.5 | 0.00 | 0.00 | 0.00 | 75 | 1012.9 |
| 20260830164943 | 76 | 43 | 4.3 | 18.2 | 0.00 | 0.00 | 0.00 | 73 | 1013.1 |
| 20260830161943 | 75 | 33 | 5.2 | 20.0 | 0.00 | 0.00 | 0.00 | 76 | 1013.1 |
| 20260830154942 | 74 | 29 | 6.1 | 20.9 | 0.00 | 0.00 | 0.00 | 80 | 1012.9 |
| 20260830151942 | 73 | 29 | 7.0 | 20.9 | 0.00 | 0.00 | 0.00 | 83 | 1012.6 |
| 20260830144941 | 72 | 25 | 7.0 | 20.0 | 0.00 | 0.00 | 0.00 | 86 | 1012.4 |
| 20260830144719 | 72 | 25 | 7.0 | 20.0 | 0.00 | 0.00 | 0.00 | 86 | 1012.4 |
| 20260830142456 | 70 | 15 | 6.1 | 18.2 | 0.00 | 0.00 | 0.00 | 90 | 1012.3 |
| 20260830141314 | 70 | 14 | 5.2 | 17.4 | 0.00 | 0.00 | 0.00 | 92 | 1012.3 |
| 20260830134314 | 69 | 30 | 3.5 | 16.5 | 0.00 | 0.00 | 0.00 | 93 | 1012.5 |
| 20260830131313 | 69 | 65 | 2.6 | 16.5 | 0.00 | 0.00 | 0.00 | 93 | 1012.6 |
| 20260830124313 | 68 | 59 | 3.5 | 16.5 | 0.00 | 0.00 | 0.00 | 95 | 1012.2 |
| 20260830121312 | 67 | 45 | 3.5 | 14.8 | 0.00 | 0.00 | 0.00 | 99 | 1011.8 |
| 20260830114312 | 67 | 46 | 3.5 | 14.8 | 0.00 | 0.00 | 0.00 | 99 | 1011.5 |
| 20260830111311 | 66 | 44 | 2.6 | 14.8 | 0.00 | 0.00 | 0.00 | 99 | 1011.2 |
| 20260830104311 | 66 | 28 | 3.5 | 17.4 | 0.00 | 0.00 | 0.00 | 99 | 1010.9 |
| 20260830101310 | 67 | 20 | 4.3 | 19.1 | 0.01 | 0.00 | 0.00 | 99 | 1010.6 |
| 20260830094310 | 67 | 28 | 4.3 | 16.5 | 0.01 | 0.00 | 0.00 | 98 | 1010.6 |